BMCB-1 Weather Reports


time (UTC)temp
C
wind
direction
speed
KPH
gust
KPH
rain 1hr
cm
rain 24hr
cm
rain mn
cm
humidity
%
barometer
mb
20260507182023 11 0 0.0 0.0 0.00 0.00 0.00 86 1020.8
20260507181020 11 0 0.0 0.0 0.00 0.00 0.00 84 1020.8
20260507175021 12 0 0.0 0.0 0.00 0.00 0.00 81 1020.7
20260507174031 12 0 0.0 0.0 0.00 0.00 0.00 77 1020.6
20260507173021 12 0 0.0 0.0 0.00 0.00 0.00 74 1020.6
20260507172022 12 0 0.0 0.0 0.00 0.00 0.00 73 1020.6
20260507170023 12 0 0.0 0.0 0.00 0.00 0.00 71 1020.5
20260507165024 12 0 0.0 0.0 0.00 0.00 0.00 68 1020.5
20260507164021 12 0 0.0 0.0 0.00 0.00 0.00 67 1020.4
20260507163022 12 0 0.0 0.0 0.00 0.00 0.00 67 1020.4
20260507162023 12 0 0.0 0.0 0.00 0.00 0.00 66 1020.4
20260507161043 12 0 0.0 0.0 0.00 0.00 0.00 65 1020.5
20260507160021 12 0 0.0 0.0 0.00 0.00 0.00 65 1020.5
20260507155021 12 0 0.0 0.0 0.00 0.00 0.00 65 1020.5
20260507154021 12 0 0.0 0.0 0.00 0.00 0.00 66 1020.5
20260507153020 12 0 0.0 0.0 0.00 0.00 0.00 65 1020.5
20260507152047 12 0 0.0 0.0 0.00 0.00 0.00 67 1020.5
20260507151020 12 0 0.0 0.0 0.00 0.00 0.00 69 1020.5
20260507150021 12 0 0.0 0.0 0.00 0.00 0.00 69 1020.5
20260507145021 12 0 0.0 0.0 0.00 0.00 0.00 68 1020.5
20260507144021 12 0 0.0 0.0 0.00 0.00 0.00 69 1020.5
20260507143021 12 0 0.0 0.0 0.00 0.00 0.00 69 1020.5
20260507141044 12 0 0.0 0.0 0.00 0.00 0.00 68 1020.6
20260507140022 12 0 0.0 0.0 0.00 0.00 0.00 67 1020.5
20260507135041 13 0 0.0 0.0 0.00 0.00 0.00 67 1020.6
20260507134017 12 0 0.0 0.0 0.00 0.00 0.00 67 1020.6
20260507133043 12 0 0.0 0.0 0.00 0.00 0.00 68 1020.6
20260507132020 13 0 0.0 0.0 0.00 0.00 0.00 69 1020.6
20260507131016 12 0 0.0 0.0 0.00 0.00 0.00 68 1020.7
20260507130021 12 0 0.0 0.0 0.00 0.00 0.00 68 1020.7
20260507125021 12 0 0.0 0.0 0.00 0.00 0.00 67 1020.7
20260507124020 12 0 0.0 0.0 0.00 0.00 0.00 68 1020.7
20260507122020 12 0 0.0 0.0 0.00 0.00 0.00 69 1020.7
20260507121045 12 0 0.0 0.0 0.00 0.00 0.00 70 1020.7
20260507120020 12 0 0.0 0.0 0.00 0.00 0.00 70 1020.7
20260507115021 12 0 0.0 0.0 0.00 0.00 0.00 70 1020.7
20260507113020 12 0 0.0 0.0 0.00 0.00 0.00 73 1020.6
20260507112030 12 0 0.0 0.0 0.00 0.00 0.00 73 1020.7
20260507111020 11 0 0.0 0.0 0.00 0.00 0.00 74 1020.7
20260507110021 11 0 0.0 0.0 0.00 0.00 0.00 75 1020.8
20260507105021 11 0 0.0 0.0 0.00 0.00 0.00 75 1020.9
20260507104021 11 0 0.0 0.0 0.00 0.03 0.00 73 1020.9
20260507103042 11 0 0.0 0.0 0.00 0.03 0.00 75 1020.9
20260507102020 11 0 0.0 0.0 0.00 0.03 0.00 73 1020.8
20260507101021 11 0 0.0 0.0 0.00 0.03 0.00 75 1020.8
20260507095044 10 0 0.0 0.0 0.00 0.05 0.00 77 1020.8
20260507094020 10 0 0.0 0.0 0.00 0.05 0.00 79 1020.8
20260507093018 10 0 0.0 0.0 0.00 0.05 0.00 79 1020.7
20260507092020 11 0 0.0 0.0 0.00 0.05 0.00 77 1020.5
20260507090045 11 0 0.0 0.0 0.00 0.08 0.00 79 1020.5
20260507085020 11 0 0.0 0.0 0.00 0.08 0.00 80 1020.5
20260507084020 10 0 0.0 0.0 0.00 0.08 0.00 80 1020.5
20260507083021 10 0 0.0 0.0 0.00 0.10 0.00 80 1020.5
20260507082022 10 0 0.0 0.0 0.00 0.10 0.00 81 1020.5
20260507081043 10 0 0.0 0.0 0.00 0.10 0.00 81 1020.4
20260507080035 10 0 0.0 0.0 0.00 0.10 0.00 82 1020.4
20260507075028 9 0 0.0 0.0 0.00 0.10 0.00 84 1020.4
20260507074038 9 0 0.0 0.0 0.00 0.10 0.00 85 1020.3
20260507073021 9 0 0.0 0.0 0.00 0.10 0.00 85 1020.3
20260507072020 9 0 0.0 0.0 0.00 0.10 0.00 86 1020.3
20260507070039 8 0 0.0 0.0 0.00 0.10 0.00 86 1020.2
20260507065041 8 0 0.0 0.0 0.00 0.13 0.00 87 1020.2
20260507063042 8 0 0.0 0.0 0.00 0.15 0.00 90 1020.1
20260507062041 7 0 0.0 0.0 0.00 0.18 0.00 90 1020.0
20260507061043 7 0 0.0 0.0 0.00 0.18 0.00 91 1020.0
20260507060022 7 0 0.0 0.0 0.00 0.20 0.00 92 1019.9
20260507055023 7 0 0.0 0.0 0.00 0.23 0.00 93 1019.8
20260507054022 7 0 0.0 0.0 0.00 0.25 0.00 94 1019.7
20260507053020 7 0 0.0 0.0 0.00 0.30 0.00 95 1019.7
20260507052020 6 0 0.0 0.0 0.00 0.33 0.00 96 1019.6
20260507051042 6 0 0.0 0.0 0.00 0.36 0.00 96 1019.5
20260507050037 6 0 0.0 0.0 0.00 0.38 0.00 97 1019.4
20260507045038 6 0 0.0 0.0 0.00 0.41 0.00 97 1019.3
20260507044021 6 0 0.0 0.0 0.00 0.43 0.00 97 1019.2
20260507043042 6 0 0.0 0.0 0.00 0.46 0.00 97 1019.2
20260507042021 6 0 0.0 0.0 0.00 0.48 0.00 97 1019.1
20260507041042 6 0 0.0 0.0 0.00 0.48 0.00 96 1019.0
20260507040021 6 0 0.0 0.0 0.00 0.51 0.00 96 1019.0
20260507035021 6 0 0.0 0.0 0.00 0.51 0.00 96 1018.9
20260507034021 6 0 0.0 0.0 0.00 0.51 0.00 96 1018.9
20260507032017 6 0 0.0 0.0 0.00 0.51 0.00 96 1018.9
20260507031022 6 0 0.0 0.0 0.00 0.51 0.00 96 1018.8
20260507025044 6 0 0.0 0.0 0.00 0.53 0.00 96 1018.7
20260507024021 6 0 0.0 0.0 0.00 0.56 0.00 96 1018.7
20260507023040 6 0 0.0 0.0 0.00 0.56 0.00 96 1018.6
20260507022021 6 0 0.0 0.0 0.00 0.58 0.00 96 1018.5
20260507021042 6 0 0.0 0.0 0.00 0.58 0.00 97 1018.4
20260507020041 6 0 0.0 0.0 0.00 0.61 0.00 97 1018.4
20260507015020 6 0 0.0 0.0 0.00 0.61 0.00 97 1018.3
20260507014020 6 0 0.0 0.0 0.00 0.64 0.00 97 1018.3
20260507013017 6 0 0.0 0.0 0.00 0.66 0.00 97 1018.3
20260507012020 6 0 0.0 0.0 0.00 0.69 0.00 97 1018.3
20260507011017 6 0 0.0 0.0 0.00 0.71 0.00 97 1018.3
20260507010042 6 0 0.0 0.0 0.00 0.71 0.00 97 1018.3
20260507005022 6 0 0.0 0.0 0.00 0.76 0.00 97 1018.3
20260507004022 6 0 0.0 0.0 0.00 0.76 0.00 97 1018.2
20260507002021 6 0 0.0 0.0 0.00 0.79 0.00 97 1018.2
20260507001021 6 0 0.0 0.0 0.00 0.79 0.00 97 1018.2
20260507000040 6 0 0.0 0.0 0.00 0.81 0.00 97 1018.2
20260506235022 6 0 0.0 0.0 0.00 0.81 0.00 98 1018.2
20260506234022 6 0 0.0 0.0 0.00 0.84 0.00 98 1018.1
20260506233021 6 0 0.0 0.0 0.00 0.86 0.00 98 1018.1
20260506232022 5 0 0.0 0.0 0.00 0.86 0.00 98 1018.1
20260506230022 5 0 0.0 0.0 0.00 0.89 0.00 97 1018.0
20260506224045 3 0 0.0 0.0 0.00 0.91 0.00 96 1018.0
20260506223032 3 0 0.0 0.0 0.00 0.94 0.00 96 1017.9
20260506222022 4 0 0.0 0.0 0.00 0.94 0.00 95 1017.9
20260506215047 5 0 0.0 0.0 0.00 0.99 0.97 93 1017.6
20260506214022 5 0 0.0 0.0 0.00 0.99 0.97 93 1017.4
20260506213032 5 0 0.0 0.0 0.00 0.99 0.97 92 1017.3
20260506212049 6 0 0.0 0.0 0.00 0.99 0.97 91 1017.1
20260506211038 7 0 0.0 0.0 0.00 1.02 0.97 90 1016.9
20260506210037 7 0 0.0 0.0 0.00 1.04 0.97 89 1016.8
20260506205042 7 0 0.0 0.0 0.00 1.04 0.97 88 1016.7
20260506204044 7 0 0.0 0.0 0.00 1.07 0.97 86 1016.5
20260506202022 8 0 0.0 0.0 0.00 1.09 0.97 85 1016.3
20260506193022 9 0 0.0 0.0 0.00 1.17 0.97 91 1015.7
20260506192026 9 0 0.0 0.0 0.00 1.17 0.97 91 1015.6
20260506191021 10 0 0.0 0.0 0.00 1.19 0.97 90 1015.5
20260506190022 10 0 0.0 0.0 0.00 1.22 0.97 89 1015.4
20260506185037 10 0 0.0 0.0 0.00 1.24 0.97 90 1015.3
20260506184022 10 0 0.0 0.0 0.00 1.27 0.97 90 1015.1
20260506183022 10 0 0.0 0.0 0.00 1.30 0.97 91 1015.0